QIANFAN-11 (60389 NORAD) Tracking and Keplerian Element Data

This shows tracking and keplerian element data for the satellite.

Feedback or suggestion? Click here.




ElementValue
Catalog60389
NameQIANFAN-11
Epoch Orbit937
Epoch Day285.82265576
Epoch Year2024
RAAN343.5541
Inclination88.9855
Eccentricity0.0013226
Argument of Perigee25.1576
Mean Anonmoly335.0247
Mean Motion14.06094945
Decay Rate7.86E-06
L11 60389U 24140L 24285.82265576 .00000786 00000+0 47020-3 0 9995
L22 60389 88.9855 343.5541 0013226 25.1576 335.0247 14.06094945 9371



Live tracking and technical data element details for QIANFAN-11 (NORAD 60389). QIANFAN-11 can be tracked NOW for your location showing map with azimuth and elevation plus other details from your city location.







IsCatalogInMostPopularTable: catalog: 60389, numindb: 4
Update: records affected: 1



GetName: 60389 QIANFAN-11

Hit Count: updated at: Wed, 04 Dec 2024 17:52:10 GMT